Regional Weather Roundup
Issued by NWS Cleveland, OH

Home | Current Version | Previous Version | Graphics & Text | Print | Product List | Glossary On
Versions: 1 2 3 4 5 6 7 8 9 10 11 12 13 14 15 16 17 18 19 20 21 22 23 24 25 26 27 28 29 30 31 32 33 34 35 36 37 38 39 40 41 42 43 44 45 46 47 48 49 50
000
ASUS41 KCLE 311412
RWRCLE
OHIO REGIONAL WEATHER ROUNDUP
NATIONAL WEATHER SERVICE WILMINGTON, OH
1000 AM EDT TUE MAY 31 2016

NOTE: "FAIR" INDICATES FEW OR NO CLOUDS BELOW 12,000 FEET WITH NO
SIGNIFICANT WEATHER AND/OR OBSTRUCTIONS TO VISIBILITY.

OHZ001>008-015>018-024>027-034-035-043-044-311500-
   NORTHWEST OHIO

CITY           SKY/WX    TMP DP  RH WIND       PRES   REMARKS
DEFIANCE       FAIR      76  52  43 E7        30.04S
FINDLAY        FAIR      76  55  48 N3        30.02S
TOLEDO EXPRESS FAIR      75  55  49 NE8       30.03S
TOLEDO EXEC    FAIR      76  57  51 MISG      30.04R
LIMA           FAIR      75  55  49 NE8       30.03S
$$

OHZ009>014-019>023-028>033-038-089-311500-
   NORTHEAST OHIO

CITY           SKY/WX    TMP DP  RH WIND       PRES   REMARKS
CLE-HOPKINS    PTSUNNY   79  57  46 CALM      30.03S
CLE-LAKEFRONT  FAIR      74  63  68 N5        30.00S
CUY CO. ARPT   PTSUNNY   79  61  53 CALM      30.03
LORAIN-ELYRIA  FAIR      76  60  57 CALM      30.02S
ASHTABULA      FAIR      74  60  61 CALM      30.03F
AKRON-CANTON   FAIR      76  59  55 CALM      30.02S
WOOSTER        FAIR      75  60  59 N5        30.03S
MANSFIELD      FAIR      76  59  55 N6        30.03
YOUNGSTOWN     CLOUDY    75  57  53 S5        30.03S
$$

OHZ042-051>053-060>062-070>072-077>081-311500-
  SOUTHWEST OHIO

CITY           SKY/WX    TMP DP  RH WIND       PRES   REMARKS
CINC-COVINGTON PTSUNNY   81  59  47 CALM      30.02S
CINC-LUNKEN    FAIR      76  65  68 CALM      30.02S
HAMILTON       FAIR      78  61  55 CALM      30.02S
DAYTON         PTSUNNY   77  59  53 E3        30.04R
WRIGHT-PAT AFB FAIR      76  63  64 CALM      30.02S
DAYTON GENERAL FAIR      79  56  45 CALM      30.02R
WILMINGTON     FAIR      80  62  54 W3        30.02S
$$

OHZ036-037-039>041-045>050-054>059-063>069-073>076-082>088-311500-
  CENTRAL AND SOUTHEAST OHIO

CITY           SKY/WX    TMP DP  RH WIND       PRES   REMARKS
COLUMBUS       FAIR      76  58  53 CALM      30.01S
OSU AIRPORT    FAIR      77  61  57 CALM      30.02R
BOLTON FIELD   SUNNY    N/A N/A N/A CALM      30.02
RICKENBACK AFB FAIR      75  61  62 CALM      30.01S
NEWARK         FAIR      78  62  57 CALM      30.01S
MARION         FAIR      77  59  53 VRB3      30.03R
LANCASTER      FAIR      79  64  60 CALM      30.02S
ZANESVILLE     FAIR      77  62  59 SW5       30.02S
NEW PHILLY     FAIR      77  61  57 SE3       30.02S
$$




USA.gov is the U.S. government's official web portal to all federal, state and local government web resources and services.